Aérodrome :
LOGIN :

S'inscrire | Disclaimer

   EN    FR    IT 

 










Légende :    VFR   VFR Marginal   IFR   IFR Intensif   IFR Très Intensif
Visi : 
Plafond : 
>= 8 km
>= 3000ft
5 à 8 km
1000 à 3000 ft
1500m à 5 km
500 à 1000 ft
800 à 1500m
200 à 500 ft
< 800m
< 200 ft
Symboles :   Orages  Brouillard  Fortes neiges  Fortes précipitations  Vent > 20 kt
SIGMETs :   Divers  Orages  Givrage  Turbulence  Onde Orograph.  Cendres Volcan.







- Altitude de l'aérodrome : 231 ft
- Code IATA : WTN


EGXW - RAF Waddington

DERNIER METAR :
  • 270050Z 12010KT CAVOK 14/08 Q1012 BLU

METARs EXPIRÉS :
  • 262350Z 11009KT CAVOK 14/08 Q1013 BLU
  • 262250Z 10009KT CAVOK 14/09 Q1013 BLU

TAF TAF EGXW
Valide du 27 à 00h jusqu'au 27 à 18h UTC


262217Z 2700/2718 12008KT 9999 BKN048
PROB30
TEMPO 2702/2715 7000 RA SCT020
TEMPO 2715/2718 5000 RA SCT015
PROB30
TEMPO 2715/2718 4000 SHRA SCT010 BKN040CB
Pas de NOTAMs connus pour ce terrain.



MET'MAP, la Météo Aéronautique d'un coup d'oeil ! - Copyright ORBIFLY Décembre 2007 - Disclaimer

ORBIFLY MET'MAP TEAM :

Programmation & Développement : Alexandra Zaïnal
Conception & Développement : Baudouin d'Aumeries
Co-Programmation & Développement : Marc-Olivier Méhu
Soutien technique & logistique : Manuel Goepfert

Contact : metmap@orbifly.com




SOURCES & CREDITS :

   NOAA